{"data":{"norad_id":67352,"epoch":"2026-05-25T00:40:38.339328Z","epoch_age_seconds":75717,"freshness":"FRESH","line1":"1 67352U 26003U   26145.02822152  .00024839  00000+0  90870-3 0  9996","line2":"2 67352  43.0014 155.5344 0001416 268.2271  91.8419 15.27595074 20508","mean_motion":15.27595074,"eccentricity":0.0001416,"inclination_deg":43.0014,"raan_deg":155.5344,"arg_perigee_deg":268.2271,"mean_anomaly_deg":91.8419,"bstar":0.0009087,"rev_number":2050,"period_min":94.265818508394,"perigee_km":482.03242187212,"apogee_km":483.97549699183,"semimajor_km":6861.140959432,"source":"CELESTRAK","updated_at":"2026-05-25T13:38:21.525920Z"}}